Temp
84 81 78 71 71 71 72 72 72 72 72 73 73 73 73 74 74 75 75 74 73 72 71 70 70 69 70 70 70 70 83 77
84 83 81 81 79 70 70 71 71 71 71 70 72 72 72 72 72 73 74 73 72 71 70 70 69 68 69 69 69 72 75 79
83 82 83 84 84 78 71 71 71 70 71 70 70 81 79 77 74 70 71 71 72 70 68 68 68 68 67 68 68 80 79 77
83 81 81 83 86 82 81 81 81 80 81 81 80 81 80 81 74 68 68 68 68 68 67 67 70 75 73 70 81 77 76 73
81 81 82 82 84 84 84 82 82 82 81 82 82 82 78 77 74 72 69 69 69 68 66 69 75 75 76 78 78 73 76 73
81 78 82 79 84 82 85 85 81 80 80 80 80 79 75 75 75 74 72 67 68 67 66 68 71 75 75 78 76 74 82 75
85 77 81 80 79 79 79 80 84 82 79 78 78 77 74 77 71 76 71 68 66 65 65 66 66 73 73 76 74 78 77 78
87 81 79 82 79 76 77 76 75 79 80 77 77 76 75 73 74 72 70 68 66 66 65 65 65 69 74 74 76 79 82 82
88 83 76 78 77 74 75 78 76 75 77 78 76 76 74 74 69 69 71 67 68 65 65 65 65 69 74 76 80 80 80 80
90 87 75 74 75 76 74 77 76 74 72 74 73 73 72 72 65 68 67 66 66 64 64 63 64 68 74 75 79 79 78 78
88 86 76 72 74 75 72 73 73 73 75 73 71 70 72 68 70 66 66 64 64 66 63 64 64 70 72 77 78 78 77 80
89 87 78 72 72 72 71 72 72 69 68 70 69 69 69 70 67 65 67 63 63 64 62 63 66 71 76 74 75 78 77 77
88 85 79 72 69 67 68 67 67 68 67 68 68 68 67 67 66 65 65 62 63 64 63 62 63 76 70 67 67 70 75 77
85 85 83 73 70 73 77 73 73 71 69 67 67 66 66 65 66 64 63 62 62 62 62 61 62 70 69 68 61 61 68 75
85 85 84 74 75 78 77 73 69 66 67 67 67 67 66 65 65 63 62 62 62 62 63 62 63 67 70 69 62 59 63 70
85 85 83 73 78 80 75 68 65 68 68 68 64 65 65 65 63 63 62 62 61 62 64 63 67 66 69 75 74 74 64 59
83 84 83 77 79 81 76 74 76 74 70 68 66 63 64 63 63 62 61 61 62 62 63 66 68 68 70 70 72 74 72 68
81 81 81 79 79 79 77 75 76 74 70 67 64 62 62 61 62 62 62 62 62 62 64 66 68 70 73 72 71 68 71 71
78 78 79 79 77 77 77 75 75 72 71 67 62 60 60 61 61 61 61 62 62 63 63 67 69 70 71 69 73 73 75 75
72 78 79 78 76 76 76 76 72 74 69 65 62 58 59 61 61 61 61 62 62 63 65 68 68 68 67 68 68 72 72 74
MSLP
1006.44 1007.30 1007.92 1008.44 1008.76 1009.07 1009.45 1009.70 1010.08 1010.45 1010.83 1011.10 1011.26 1011.92 1012.17 1012.43 1012.87 1013.15 1013.47 1014.01 1014.47 1014.97 1015.06 1015.74 1016.43 1016.98 1017.18 1017.25 1017.41 1017.65 1017.14 1018.16
1006.44 1006.96 1007.52 1008.00 1008.53 1009.16 1009.51 1009.75 1010.09 1010.52 1010.94 1011.15 1011.35 1011.75 1012.16 1012.67 1012.68 1013.23 1013.60 1014.08 1014.50 1015.09 1015.59 1015.52 1016.32 1017.08 1017.37 1017.55 1017.64 1017.83 1018.09 1018.17
1006.39 1006.86 1007.15 1007.50 1007.91 1008.78 1009.48 1009.83 1010.12 1010.46 1010.87 1011.25 1011.37 1011.42 1012.05 1012.45 1012.84 1012.99 1013.58 1014.33 1014.75 1015.28 1016.28 1016.62 1016.16 1017.10 1017.57 1017.68 1017.69 1017.22 1017.81 1018.49
1005.93 1006.71 1007.03 1007.21 1007.38 1008.16 1008.83 1009.24 1009.69 1010.01 1010.16 1010.49 1011.05 1011.29 1011.83 1012.15 1013.04 1013.51 1014.02 1014.64 1015.36 1015.84 1016.37 1017.30 1016.56 1017.15 1017.81 1017.84 1017.38 1017.58 1018.11 1018.93
1005.65 1006.27 1006.68 1007.05 1007.24 1007.60 1008.05 1008.52 1008.96 1009.40 1009.74 1009.92 1010.34 1010.90 1011.78 1012.39 1013.21 1013.79 1014.51 1015.04 1015.41 1016.15 1016.27 1017.13 1016.70 1016.85 1017.34 1017.45 1017.34 1017.97 1018.14 1019.00
1005.14 1006.26 1006.35 1007.05 1007.02 1007.49 1007.56 1007.76 1008.53 1009.02 1009.45 1009.91 1010.12 1010.70 1011.57 1012.23 1012.81 1013.64 1014.34 1014.76 1015.17 1015.93 1016.05 1016.91 1016.71 1016.84 1017.23 1017.22 1017.47 1017.92 1017.59 1018.86
1003.67 1005.72 1005.94 1006.58 1006.90 1007.39 1007.64 1007.88 1008.03 1008.43 1009.20 1009.80 1010.28 1010.76 1011.42 1011.75 1012.53 1013.02 1013.99 1014.71 1015.34 1015.60 1015.68 1016.55 1016.99 1016.75 1017.03 1017.21 1017.48 1017.28 1017.79 1018.26
1002.58 1004.43 1005.60 1005.91 1006.48 1007.05 1007.51 1008.06 1008.53 1008.60 1008.99 1009.53 1010.23 1010.53 1011.21 1011.63 1012.38 1013.20 1013.94 1014.36 1014.89 1015.16 1015.63 1016.09 1016.85 1016.76 1016.91 1017.23 1017.10 1017.16 1017.28 1017.65
1001.46 1003.17 1004.96 1005.55 1006.16 1006.71 1007.29 1007.61 1008.10 1008.68 1008.90 1009.17 1009.93 1010.41 1010.98 1011.40 1012.10 1012.78 1013.19 1013.95 1014.50 1015.24 1015.54 1015.56 1016.53 1016.59 1016.54 1016.43 1016.70 1017.13 1017.88 1018.04
1000.80 1002.09 1004.19 1005.24 1005.74 1006.17 1006.68 1007.22 1007.79 1008.37 1008.90 1009.23 1009.73 1010.31 1010.85 1011.50 1012.00 1012.58 1013.12 1013.59 1014.24 1015.16 1015.61 1016.05 1016.47 1016.24 1015.72 1016.36 1016.45 1017.22 1017.84 1018.22
1000.28 1001.39 1003.45 1004.68 1005.40 1005.86 1006.36 1006.83 1007.43 1007.88 1008.35 1008.88 1009.43 1010.16 1010.63 1011.16 1011.72 1012.28 1012.86 1013.56 1014.09 1014.96 1015.54 1015.95 1016.20 1015.44 1015.89 1016.02 1016.59 1017.22 1017.75 1018.01
999.61 1000.77 1002.58 1004.18 1005.11 1005.75 1006.29 1006.64 1007.11 1007.76 1008.22 1008.64 1009.11 1009.79 1010.31 1010.63 1011.37 1012.02 1012.20 1013.19 1013.90 1014.79 1015.31 1015.82 1015.73 1015.37 1015.60 1015.93 1016.52 1017.02 1017.69 1018.12
999.36 1000.30 1001.70 1003.43 1004.34 1005.12 1005.61 1006.03 1006.84 1007.42 1007.93 1008.35 1008.70 1009.34 1009.96 1010.51 1011.03 1011.84 1011.72 1012.78 1013.48 1014.20 1015.03 1015.57 1015.57 1014.68 1015.33 1016.44 1017.05 1017.43 1017.50 1017.83
999.25 999.90 1000.89 1002.64 1003.81 1004.43 1004.67 1005.48 1006.00 1006.76 1007.49 1008.12 1008.33 1008.89 1009.37 1010.01 1010.53 1011.06 1011.71 1012.51 1013.30 1013.84 1014.47 1015.22 1015.51 1014.58 1015.14 1016.24 1017.39 1018.50 1018.29 1017.87
998.81 999.32 1000.15 1002.04 1003.07 1003.66 1004.09 1004.87 1005.94 1006.57 1007.02 1007.40 1007.80 1008.26 1008.78 1009.36 1009.94 1010.61 1011.29 1011.97 1012.11 1013.45 1013.90 1014.49 1014.92 1014.86 1015.12 1015.20 1016.25 1016.95 1017.94 1018.13
998.23 998.78 999.68 1001.81 1002.01 1002.06 1002.91 1004.25 1005.12 1005.57 1006.17 1006.82 1007.42 1007.92 1008.40 1008.72 1009.31 1009.97 1010.70 1011.40 1011.83 1012.79 1013.39 1013.90 1014.07 1014.31 1014.89 1014.87 1015.23 1015.17 1016.45 1017.61
997.85 998.45 999.09 1000.82 1001.00 1001.26 1002.38 1003.42 1003.64 1004.55 1005.54 1006.14 1006.77 1007.36 1007.94 1008.20 1008.82 1009.50 1010.21 1011.20 1011.56 1011.99 1012.86 1013.26 1013.40 1013.74 1014.02 1014.52 1014.73 1014.86 1015.24 1015.54
997.62 998.26 998.82 999.99 1000.57 1001.32 1001.96 1002.60 1003.03 1003.69 1004.65 1005.36 1006.14 1006.77 1007.52 1007.93 1008.23 1008.91 1009.61 1010.47 1011.09 1011.52 1012.12 1012.76 1012.96 1013.37 1013.57 1014.04 1014.39 1014.56 1014.55 1014.89
997.63 998.36 998.65 999.67 1000.57 1001.24 1001.78 1002.42 1002.99 1003.63 1004.20 1005.02 1005.96 1006.63 1006.97 1007.39 1007.81 1008.28 1009.18 1009.84 1010.54 1011.27 1011.83 1012.32 1012.55 1013.15 1013.38 1013.74 1014.08 1014.40 1014.58 1014.73
998.47 998.11 998.67 999.61 1000.53 1001.10 1001.79 1002.29 1003.07 1003.39 1004.08 1005.11 1005.75 1006.32 1006.69 1006.98 1007.32 1007.90 1008.80 1009.42 1010.05 1010.92 1011.63 1012.01 1012.57 1013.10 1013.48 1013.89 1014.30 1014.52 1014.90 1014.76
Wind_Speed
12 12 12 9 9 10 10 9 10 11 12 16 18 17 14 17 18 18 18 13 16 18 21 19 16 13 12 10 6 1 9 9
10 11 13 13 12 10 10 10 9 9 9 10 13 13 14 14 15 13 15 15 17 18 17 20 18 13 12 7 5 6 7 11
11 11 12 11 11 12 11 10 9 8 8 6 8 10 14 16 14 12 13 13 14 15 11 14 19 14 11 8 7 5 8 7
12 12 12 11 9 11 12 12 11 11 11 11 10 11 11 13 9 9 12 13 12 13 13 11 16 11 8 8 8 7 6 8
12 12 13 13 10 8 7 6 8 9 12 12 11 10 8 7 7 8 6 10 7 9 10 8 10 8 9 10 7 4 4 7
16 13 14 12 8 7 8 9 8 7 9 10 8 6 8 8 8 9 9 7 11 9 7 9 10 12 11 13 9 7 7 7
18 15 15 15 12 10 8 8 8 10 7 9 8 10 9 10 7 10 7 8 8 8 9 9 7 11 11 11 8 7 9 9
17 18 18 15 14 12 10 9 6 9 9 9 13 9 11 9 10 9 10 9 7 8 10 11 9 12 11 12 10 8 7 5
16 17 14 16 17 12 10 10 9 9 10 12 12 13 11 12 9 9 8 8 10 7 5 9 10 12 14 9 9 8 9 8
15 15 17 16 15 14 10 11 10 9 7 8 10 12 11 12 5 7 7 6 7 8 7 7 10 13 8 8 9 9 10 9
16 17 19 15 14 13 10 12 9 8 10 10 11 11 14 10 9 8 10 7 7 9 7 8 9 9 7 9 9 9 10 9
15 15 18 15 10 9 8 8 8 6 7 8 11 10 13 13 7 8 12 10 9 9 10 8 10 10 11 7 8 10 10 10
15 17 19 13 10 10 10 9 7 7 7 11 12 12 13 12 9 8 11 11 11 13 8 10 11 10 8 6 5 5 6 8
16 17 19 14 10 11 11 10 8 8 8 10 11 13 12 11 11 9 12 11 13 13 11 9 8 7 11 9 7 2 3 7
16 18 19 16 18 13 10 6 4 5 8 9 12 13 12 13 13 11 13 11 12 14 13 14 11 10 14 10 10 6 9 7
16 17 18 16 21 17 16 10 8 8 9 9 8 12 13 14 12 13 12 10 13 14 12 12 13 13 11 11 10 9 11 6
13 16 18 18 20 16 13 14 11 10 8 12 12 11 12 12 13 13 13 10 12 15 15 15 13 12 11 10 9 7 12 10
13 15 17 18 18 17 15 14 10 9 9 8 8 7 9 10 15 13 13 13 12 15 15 18 13 12 11 10 9 7 7 7
12 16 18 18 17 17 15 13 13 9 10 7 8 5 6 10 12 15 13 12 13 12 12 14 13 12 12 8 6 6 6 6
12 16 17 17 16 14 11 10 7 8 7 6 6 6 7 9 15 14 15 15 13 11 11 12 11 11 12 9 6 7 6 6
Wind_Direction
155 171 176 160 167 165 182 174 170 175 181 175 176 176 177 172 176 178 173 153 146 145 142 138 139 144 149 162 176 60 133 123
167 179 179 182 178 170 173 179 177 180 188 198 196 182 176 186 183 176 170 155 151 149 148 140 136 147 148 160 158 151 159 123
176 187 184 186 184 174 172 177 184 180 180 197 183 195 189 191 194 175 168 160 168 137 141 148 135 143 155 157 203 113 115 107
187 184 188 189 193 169 194 191 199 203 207 197 209 197 199 198 170 112 116 116 119 141 146 162 150 156 168 166 201 128 133 122
189 193 192 191 196 187 190 183 204 203 210 205 199 191 203 192 156 144 145 149 155 151 137 194 176 167 175 190 150 131 136 118
170 207 193 201 198 193 201 198 191 200 200 206 198 182 186 173 165 174 168 163 164 170 157 205 191 178 182 197 143 196 172 137
181 192 205 197 186 190 202 217 201 187 187 194 197 189 182 179 177 177 173 171 177 181 171 184 209 190 192 176 192 189 201 141
182 189 209 198 198 185 194 183 201 207 199 191 203 194 187 169 179 179 182 172 172 186 189 187 178 206 180 189 190 168 145 160
190 186 188 204 200 184 189 199 191 204 205 207 197 204 194 185 180 175 183 177 181 190 201 158 173 200 181 182 169 153 171 179
208 185 180 207 201 195 187 197 198 194 192 198 199 203 189 199 167 186 171 154 164 168 175 174 191 199 155 167 164 164 162 179
201 196 186 192 203 197 185 187 190 203 204 198 188 191 195 190 196 184 167 160 162 170 171 186 191 200 155 164 151 167 165 176
199 197 179 183 192 195 182 188 190 177 197 197 185 195 197 200 196 192 169 164 168 170 174 198 195 186 178 140 164 162 172 168
202 197 176 180 184 185 186 187 183 194 189 199 190 192 196 203 208 194 164 164 172 175 173 192 212 186 133 125 71 49 168 174
212 203 189 178 184 195 200 191 199 196 187 193 194 193 193 196 201 188 178 177 169 176 176 183 204 183 152 153 144 75 224 209
214 204 189 179 192 200 195 152 157 188 197 206 198 199 194 198 199 182 177 173 172 179 176 181 187 191 161 165 154 183 171 206
209 204 177 185 202 196 179 178 194 199 200 205 191 194 197 197 182 177 175 174 177 179 185 187 186 177 174 178 202 180 173 166
204 205 183 186 205 203 176 204 200 183 207 194 193 190 198 184 176 176 176 180 183 178 186 196 190 180 177 199 190 229 181 167
192 201 195 186 198 204 195 204 214 202 195 195 192 182 191 188 180 173 169 173 177 182 181 196 185 190 181 188 188 213 183 229
183 201 192 185 192 196 193 204 207 200 206 198 184 174 191 188 182 173 172 171 171 176 189 192 185 187 189 183 192 208 222 225
199 197 188 179 187 188 193 189 192 209 171 184 195 185 191 193 187 181 181 172 171 176 189 190 187 189 187 178 196 202 226 246